Location: Newark
(43.4306°N, 0.3089°E)
Time: 18:09:37
(UTC+00:00)

A-11 Canister half - Pass Details

Date: 29 August 2019
Orbit: 1514 x 1686 km, 47.2° (Epoch: 13 October)

Event Time Altitude Azimuth Distance (km) Brightness Sun altitude
Rises 23:39:20 0° 293° (WNW) 4,797 11.9 -37.2°
Reaches altitude 10° 23:43:03 10° 281° (WNW) 3,837 11.2 -37.3°
Enters shadow 23:47:10 21° 259° (W) 3,047 10.4 -37.3°
